Weather Roundup
Issued by NWS Chicago, IL

Home | Current Version | Previous Version | Graphics & Text | Print | Product List | Glossary On
Versions: 1 2 3 4 5 6 7 8 9 10 11 12 13 14 15 16 17 18 19 20 21 22 23 24 25 26 27 28 29 30 31 32 33 34 35 36 37 38 39 40 41 42 43 44 45 46 47 48 49 50
000
NZUS59 KLOT 172004
HRRLOT

CHICAGO AREA WEATHER ROUNDUP
NATIONAL WEATHER SERVICE CHICAGO/ROMEOVILLE IL
200 PM CST FRI NOV 17 2017

NOTE: "FAIR" INDICATES FEW OR NO CLOUDS BELOW 12,000 FEET WITH NO
SIGNIFICANT WEATHER AND/OR OBSTRUCTIONS TO VISIBILITY.

* THESE STATIONS ARE NOT UNDER NWS QUALITY CONTROL. THEY ALSO MAY NOT
  REPORT WEATHER SUCH AS PRECIPITATION OR FOG.

ILZ005-006-012>014-019>023-172100-
NORTHEAST ILLINOIS

CITY           SKY/WX    TMP DP  RH WIND       PRES   REMARKS
OHARE          CLOUDY    44  31  60 S15       29.84F
MIDWAY         CLOUDY    45  31  58 S13G24    29.85F
AURORA         CLOUDY    38  34  85 SE15      29.83F
LANSING*       CLOUDY    44  34  68 S17       29.88F
JOLIET*        CLOUDY    39  37  89 SE8       29.86F
WAUKEGAN       CLOUDY    44  31  60 SE9       29.81F
DUPAGE AIRPORT LGT RAIN  38  35  89 S15G29    29.83F FOG
WHEELING       CLOUDY    45  31  58 S13G21    29.85F
KANKAKEE*      LGT RAIN  41  32  71 S9G22     29.88F
MORRIS*        CLOUDY    38  35  89 SE13      29.83F
LEWIS AIRPORT* LGT RAIN  38  35  87 S14       29.86F
NORTHERLY ISL    N/A     44  30  58 S17         N/A
$$

WIZ051-052-058>065-066-070>072-172100-
SOUTHEAST WISCONSIN

CITY           SKY/WX    TMP DP  RH WIND       PRES   REMARKS
MILWAUKEE      CLOUDY    42  34  73 S15       29.81F
KENOSHA*       CLOUDY    43  30  60 S10       29.81F
RACINE*        CLOUDY    42  34  73 S18G26    29.83F
WAUKESHA       CLOUDY    37  28  70 SE12      29.81F
WEST BEND      LGT RAIN  37  32  81 S10       29.79F
$$

INZ001>003-010>013-019-020-172100-
NORTHWEST INDIANA

CITY           SKY/WX    TMP DP  RH WIND       PRES   REMARKS
GARY*          CLOUDY    46  32  57 S12G25    29.89F
MICHIGAN CITY* NOT AVBL
RENSSELAER*    NOT AVBL
VALPARAISO     CLOUDY    46  34  62 S10       29.90F
$$

LMZ740>746-172100-
SOUTHERN LAKE MICHIGAN

STATION/POSITION TIME  SKY/WX   TEMP WIND        PRES    VSBY
                                AIR  DIR/SP/G
                 (UTC)          (F)  (DEG/KT/KT) (MB)    (MI)
HARRISON CRIB    1940            45  180/ 23/ 25   N/A
BURNHAM HARBOR   2000            44  160/  8/ 15   N/A
CALUMET HARBOR   NOT AVBL
BURNS HARBOR     1940            45  170/ 13/ 23 1012.5F
MICHIGAN CITY    1940            44  150/ 14/ 19   N/A
$$

ABBREVIATIONS USED IN REMARKS
   TC - TEMPERATURE IN CELSIUS
  WCI - WIND CHILL INDEX
   HX - HEAT INDEX
  VSB - VISIBILITY
$$




USA.gov is the U.S. government's official web portal to all federal, state and local government web resources and services.